Location: Broletto
(44.6000°N, 10.5833°E)
Time: 00:39:41
(UTC+00:00)

Meteor 1-27 - Pass Details

Date: 18 April 2021
Orbit: 838 x 892 km, 81.2° (Epoch: 08 May)

Event Time Altitude Azimuth Distance (km) Brightness Sun altitude
Exits shadow 20:47:47 61° 164° (SSE) 988 4.2 -24.9°
Maximum altitude 20:48:46 78° 98° (E) 902 4.1 -25.0°
Drops below altitude 10° 20:54:35 10° 13° (NNE) 2,556 7.1 -25.6°
Sets 20:57:04 0° 12° (NNE) 3,505 7.9 -25.9°
